Regional Weather Roundup
Issued by NWS

Home | Current Version | Previous Version | Text Only | Print | Product List | Glossary On
Versions: 1 2 3 4 5 6 7 8 9 10 11 12 13 14 15 16 17 18 19 20 21 22 23 24 25 26 27 28 29 30 31 32 33 34 35 36 37 38 39 40 41 42 43 44 45 46 47 48 49 50
000
ASUS43 KMKX 241700
RWRWI

WISCONSIN REGIONAL WEATHER ROUNDUP
NATIONAL WEATHER SERVICE MILWAUKEE/SULLIVAN WI
1200 PM CDT THU MAY 24 2018

NOTE: "FAIR" INDICATES FEW OR NO CLOUDS BELOW 12,000 FEET WITH NO
SIGNIFICANT WEATHER AND/OR OBSTRUCTIONS TO VISIBILITY.

WIZ001-002-006>008-014>016-023>028-241800-
NORTHWEST WISCONSIN

CITY           SKY/WX    TMP DP  RH WIND       PRES   REMARKS
SUPERIOR ARPT  CLOUDY    55  55 100 NE5       30.05S FOG
ASHLAND        PTSUNNY   73  67  81 S6        30.05F
HAYWARD        FAIR      73  67  81 S9        30.06F
SIREN          FAIR      77  65  66 SE10      30.02F
CUMBERLAND     FAIR      75  63  64 E9        30.06F
RICE LAKE      FAIR      80  63  56 SE5       30.07F HX  81
CHETEK         FAIR      82  66  59 CALM      30.06S HX  84
LADYSMITH      FAIR      78  63  61 E5        30.10F
EAU CLAIRE     NOT AVBL
MENOMONIE      FAIR      84  65  53 S7        30.05S HX  86
NEW RICHMOND   FAIR      84  64  50 SW9       30.02F HX  85
OSCEOLA        FAIR      83  65  55 S9        30.04F HX  85
$$

WIZ003>005-009-010-017-018-241800-
NORTH CENTRAL WISCONSIN

CITY           SKY/WX    TMP DP  RH WIND       PRES   REMARKS
MANITOWISH WTR LGT RAIN  65  65 100 S5        30.13S
ARBOR VITAE    CLOUDY    72  63  74 S6        30.13S
WOODRUFF       CLOUDY    72  63  74 S6        30.13S
RHINELANDER    FAIR      83  63  50 W8        30.12F HX  84
EAGLE RIVER    FAIR      68  63  84 CALM      30.14S
LAND O LAKES   CLOUDY    66  65  96 CALM      30.15F
PHILLIPS       PTSUNNY   74  64  72 CALM      30.10F
TOMAHAWK       FAIR      78  62  58 SW3       30.11F HX  80
MEDFORD        PTSUNNY   78  63  58 S12       30.11S HX  80
MERRILL        FAIR      81  64  55 SW14      30.11F HX  83
$$

WIZ029-030-035-036-043>047-241800-
CENTRAL WISCONSIN

CITY           SKY/WX    TMP DP  RH WIND       PRES   REMARKS
WAUSAU         FAIR      80  62  54 S8        30.09F HX  81
MOSINEE        PTSUNNY   79  64  61 SW6       30.13F HX  81
MARSHFIELD     CLOUDY    80  64  58 S9        30.11S HX  82
STEVENS POINT  FAIR      79  61  53 W9        30.13S HX  80
WAUPACA        FAIR      83  56  39 SE7       30.13S HX  82
WAUTOMA        FAIR      82  60  47 SW13      30.12F HX  82
WISC RAPIDS    FAIR      82  61  48 S12       30.13S HX  83
CAMP DOUGLAS   NOT AVBL
$$

WIZ011>013-019>022-031-037>040-048>050-241800-
NORTHEAST WISCONSIN

CITY           SKY/WX    TMP DP  RH WIND       PRES   REMARKS
ANTIGO         FAIR      78  62  57 SW9       30.13F HX  80
SHAWANO        FAIR      82  58  44 S7        30.12F HX  82
OCONTO         PTSUNNY   80  57  45 SE9       30.12F HX  80
STURGEON BAY   FAIR      79  57  46 SE12      30.13F HX  80
GREEN BAY      FAIR      80  57  45 S12       30.13F HX  80
MANITOWOC      FAIR      73  54  51 SE9       30.15F
APPLETON       MOSUNNY   79  52  38 S12       30.12F
CLINTONVILLE   FAIR      80  56  44 S10G17    30.12F HX  80
OSHKOSH        FAIR      81  59  47 S10G18    30.13F HX  81
$$

WIZ032>034-041-042-053>061-241800-
SOUTHWEST WISCONSIN

CITY           SKY/WX    TMP DP  RH WIND       PRES   REMARKS
LA CROSSE      FAIR      83  65  54 S12       30.07F HX  85
SPARTA         PTSUNNY   81  63  54 S8        30.11S HX  82
VIROQUA        FAIR      81  65  57 SW10      30.13S HX  83
BOSCOBEL       FAIR      85  65  51 MISG      30.11S HX  86
PRAIRIE DU CHI FAIR      81  62  51 S3        30.10F HX  82
PLATTEVILLE    FAIR      79  63  58 S8        30.14F HX  80
$$

WIZ056-057-062-063-064-067-068-241800-
SOUTH CENTRAL WISCONSIN

CITY           SKY/WX    TMP DP  RH WIND       PRES   REMARKS
REEDSBURG      FAIR      79  64  58 S8        30.12F HX  81
BARABOO/DELLS  FAIR      81  56  42 S8        30.13F HX  81
LONE ROCK      NOT AVBL
MINERAL POINT  FAIR      81  61  50 S6        30.15S HX  81
MADISON        PTSUNNY   80  58  46 S12       30.13F HX  80
MIDDLETON      FAIR      81  60  49 S5        30.15F HX  81
WATERTOWN      FAIR      80  58  47 S7        30.15F HX  80
MONROE         FAIR      81  55  41 S10       30.15S HX  80
JANESVILLE     MOSUNNY   82  55  39 S9        30.15F HX  82
$$

WIZ051-052-058>065-066-070>072-241800-
SOUTHEAST WISCONSIN

CITY           SKY/WX    TMP DP  RH WIND       PRES   REMARKS
MILWAUKEE      FAIR      79  62  56 SE10      30.15F HX  80
WAUKESHA       SUNNY     79  54  41 S6        30.17F
MILWAUKEE/TIMM SUNNY     81  46  30 S6        30.16F HX  80
RACINE         FAIR      75  57  53 SE10      30.18F
BURLINGTON     FAIR      82  57  43 SW9       30.17S HX  81
KENOSHA        FAIR      82  55  39 S10       30.16F HX  81
FOND DU LAC    FAIR      81  57  43 S10       30.13F HX  81
SHEBOYGAN      FAIR      78  59  51 SE9       30.14F
WEST BEND      FAIR      79  54  41 SW7       30.16S
JUNEAU         FAIR      78  57  48 S8        30.16S
$$

LSZ147-162-241800-
LAKE SUPERIOR

STATION/POSITION TIME  TEMP    WIND        PRES    WAVE
                       AIR SEA DIR/SP/G            HT/PER
                 (UTC) (F)     (DEG/KT/KT) (MB)    (FT/S)
W MID LAKE BUOY  1550   42 36  340/  4/  4 1018.7F   0
DEVILS ISLAND    1600   46     360/  4/  5 1018.6S
SAXON HARBOR     1630   73     210/  6/  9 1017.3S
$$

LMZ867-665-643>646-241800-
LAKE MICHIGAN

STATION/POSITION TIME  TEMP    WIND        PRES    WAVE
                       AIR SEA DIR/SP/G            HT/PER
                 (UTC) (F)     (DEG/KT/KT) (MB)    (FT/S)
N MID LAKE BUOY  1640   42 38  190/ 10/ 12 1020.9F
NORTHPORT PIER   1640   57     140/  3/  5 1020.3S
KEWAUNEE LAKESHO 1630   53     160/ 10/ 11 1020.4F
SHEBOYGAN LAKESH 1600   51     160/ 15/ 15 1021.3S
PORT WASHINGTON  1630   57     150/  5/  6 1022.4F
ATWATER BUOY     1607   53 51  160/  8/ 10 1021.6    1
MILWAUKEE LAKESH 1640   55      90/  3/  5   N/A
S MID LAKE BUOY  1550   49 40  140/  6/  6 1023.1F   0
KENOSHA   LAKESH 1600   55                 1021.7
$$

TC  - TEMPERATURE IN CELSIUS
VSB - VISIBILITY IN STATUTE MILES
WCI - WIND CHILL INDEX
HX  - HEAT INDEX




USA.gov is the U.S. government's official web portal to all federal, state and local government web resources and services.